sat.trackr.live / text

‹ back to catalog

SHIYAN-30 01

NORAD 65851 · 2025-222A

PAYLOAD ACTIVE UNKNOWN

§ Identity

Operator
Country
PRC
Launch date
2025-09-29
Launch site
XICLF
Launch vehicle
Mass (kg)
RCS (m²)

External: N2YO · Heavens-Above · Gunter

§ Orbital elements

Epoch: 2026-05-24T22:27:35.077824Z

Period
96.53 min
Inclination
34.9895°
Eccentricity
0.0003146
Mean motion
14.91750099 rev/d
Perigee alt
590.3 km
Apogee alt
594.7 km
Semi-major
6,970.6 km
B*
1.6139e-4
RAAN
41.3314°
Arg perigee
270.7821°
Mean anomaly
89.2523°
Rev number
3,556

§ Raw data

SHIYAN-30 011 65851U 25222A   26144.93582266  .00001630  00000+0  16139-3 0  99982 65851  34.9895  41.3314 0003146 270.7821  89.2523 14.91750099 35565

JSON: /api/v1/satellites/65851 · /tle

For live sub-satellite position, see the globe view (requires WebGL).

§ Visibility from observer

Set your observer location to see the next 7 days of passes ≥ 10°. The values pass through the URL so the page stays shareable.

No JS? Fill the form by hand. The geolocation button needs JavaScript.